INTELSAT 33E DEB, 64411

Orbit data source: Space-Track

INTELSAT 33E DEB, 64411 is space debris in GEO originally from a launch on Wed, 24 Aug 2016 UTC launched from the French Guiana (FRGUI). Debris objects in space refer to the collection of defunct objects orbiting the Earth. Examples of debris include non-operational satellites, rocket bodies, and fragments generated from explosions, collisions, or faulty payload assembly.

Loading next visibility...
Identifier
64411, 2016-053AR
Orbit
GEO
Country
Flag of USUS / ITSO
Related business
Manufacturer
Boeing/ES
Mission
Spacecraft
Bus & Motor
Unknown
Mass
Unknown
Launch date (UTC)
2016-08-24 (10 years ago)
Launch vehicle
Unknown
Launch site
French Guiana (FRGUI)
Object type
Payload
Rocket body
Debris
Shape & HBR
Unknown shape, 1.1 m
Radar Cross Section
RCS unknown

Expand to show TLE details & history
Last TLE update: 2 weeks ago

TLE from 2 weeks ago
0 INTELSAT 33E DEB
1 64411U 16053AR  26246.76477029  .00000022  00000-0  00000-0 0  9997
2 64411   1.5826  60.9419 0091954 358.7781   1.8375  1.00876855  6736
Epoch: 2026-09-03T18:21Z
TLE epoch observation values (Epoch: 2026-09-03T18:21:16.153Z)
Latitude
-0°
Longitude
163.36775°
Altitude
35,232.796 km
Speed
3.109 km/s
True Right ascension
04h 06m 19s
True Declination
0° 00' 00"
Sunlit
Object was in daylight at epoch
Visualization orbit readout
Latitude
Unknown
Longitude
Unknown
Altitude
Unknown
Speed
Unknown
Apparent Right ascension
Unknown
Apparent Declination
Unknown
Sunlit
N/A
Visualization observer readout
Local Sidereal Time
01:03:12
Azimuth
Unknown
Elevation
Unknown
Doppler factor
Unknown
Orbital elements
Apogee altitude
36,005.073 km
Perigee altitude
35,232.714 km
Semi-major axis
41,997.031 km
Eccentricity
0.0092
Inclination
1.5826°
RAAN
60.9419°
Arg. of periapsis
358.7781°
True anomaly
1.87168°
Mean anomaly
1.8375°
Eccentric anomaly
1.85455°
Mean motion
0.25218 °/min
Orbital period
1,427.54 mins
BSTAR
0
Loading maneuver chart data...
Computing Atmospheric mass density...
Loading historical data...
Loading historical data...
Loading historical data...
Loading historical data...
Loading historical data...
Loading historical data...
Loading historical data...

Documentation

Showing up to 5 results
|